Radiation Dose measured at exhaust stack monitor of Miscellaneous Solid Waste Incinerator Building/Incinerator raregas monitor
Date,Time,Incinerator Gas Monitor(cps),Wind Direction,Wind Velocity(m/s)
2021/10/23,00:00,1.4,northwest,6.7
2021/10/23,00:10,1.6,northwest,6.8
2021/10/23,00:20,1.4,northwest,6.2
2021/10/23,00:30,1.4,northwest,6.3
2021/10/23,00:40,1.4,northwest,5.6
2021/10/23,00:50,1.5,northwest,5.7
2021/10/23,01:00,1.5,northwest,7.7
2021/10/23,01:10,1.5,northwest,6.4
2021/10/23,01:20,1.5,northwest,7.9
2021/10/23,01:30,1.5,northwest,6.9
2021/10/23,01:40,1.5,northwest,6.8
2021/10/23,01:50,1.4,northwest,6.6
2021/10/23,02:00,1.5,northwest,6.4
2021/10/23,02:10,1.4,northwest,5.9
2021/10/23,02:20,1.5,northwest,6.1
2021/10/23,02:30,1.5,northwest,6.9
2021/10/23,02:40,1.5,northwest,6.3
2021/10/23,02:50,1.6,northwest,6.9
2021/10/23,03:00,1.5,northwest,6.1
2021/10/23,03:10,1.5,northwest,6.4
2021/10/23,03:20,1.5,northwest,5.4
2021/10/23,03:30,1.4,northwest,5.0
2021/10/23,03:40,1.5,northwest,5.1
2021/10/23,03:50,1.4,northwest,6.4
2021/10/23,04:00,1.6,north-northwest,7.1
2021/10/23,04:10,1.5,northwest,6.7
2021/10/23,04:20,1.5,northwest,5.0
2021/10/23,04:30,1.6,northwest,5.0
2021/10/23,04:40,1.5,northwest,4.8
2021/10/23,04:50,1.4,northwest,5.7
2021/10/23,05:00,1.5,northwest,5.0
2021/10/23,05:10,1.5,northwest,3.5
2021/10/23,05:20,1.5,west-northwest,4.9
2021/10/23,05:30,1.6,northwest,6.3
2021/10/23,05:40,1.6,northwest,6.6
2021/10/23,05:50,1.5,north-northwest,6.2
2021/10/23,06:00,1.5,north-northwest,4.8
2021/10/23,06:10,1.5,north-northwest,4.8
2021/10/23,06:20,1.5,north-northwest,3.7
2021/10/23,06:30,1.4,west-northwest,3.5
2021/10/23,06:40,1.5,west-northwest,5.3
2021/10/23,06:50,1.6,northwest,6.4
2021/10/23,07:00,1.5,northwest,9.5
2021/10/23,07:10,1.6,northwest,9.4
2021/10/23,07:20,1.5,northwest,7.9
2021/10/23,07:30,1.4,west-northwest,7.8
2021/10/23,07:40,1.4,west-northwest,7.3
2021/10/23,07:50,1.5,northwest,6.9
2021/10/23,08:00,1.5,west-northwest,6.5
2021/10/23,08:10,1.4,northwest,5.9
2021/10/23,08:20,1.5,northwest,6.0
2021/10/23,08:30,1.5,northwest,8.4
2021/10/23,08:40,1.5,northwest,10.6
2021/10/23,08:50,1.4,northwest,9.3
2021/10/23,09:00,1.6,northwest,8.8
2021/10/23,09:10,1.5,northwest,9.3
2021/10/23,09:20,1.5,northwest,9.7
2021/10/23,09:30,1.5,northwest,8.0
2021/10/23,09:40,1.4,northwest,8.2
2021/10/23,09:50,1.4,west-northwest,8.4
2021/10/23,10:00,1.4,northwest,9.3
2021/10/23,10:10,1.4,northwest,10.0
2021/10/23,10:20,1.5,northwest,9.6
2021/10/23,10:30,1.5,northwest,7.1
2021/10/23,10:40,1.4,northwest,5.9
2021/10/23,10:50,1.4,north,6.9
2021/10/23,11:00,1.4,north-northwest,6.5
2021/10/23,11:10,1.4,north-northwest,5.7
2021/10/23,11:20,1.6,north-northwest,4.4
2021/10/23,11:30,1.4,northwest,9.1
2021/10/23,11:40,1.5,west-northwest,10.2
2021/10/23,11:50,1.5,west-northwest,11.3
2021/10/23,12:00,1.4,west-northwest,11.0
2021/10/23,12:10,1.5,northwest,13.5
2021/10/23,12:20,1.6,northwest,9.9
2021/10/23,12:30,1.5,northwest,9.0
2021/10/23,12:40,1.4,north-northwest,8.6
2021/10/23,12:50,1.4,north-northwest,10.0
2021/10/23,13:00,1.5,northwest,9.3
2021/10/23,13:10,1.5,northwest,8.4
2021/10/23,13:20,1.5,northwest,6.4
2021/10/23,13:30,1.5,northwest,12.1
2021/10/23,13:40,1.5,northwest,11.9
2021/10/23,13:50,1.4,northwest,10.2
2021/10/23,14:00,1.5,northwest,8.7
2021/10/23,14:10,1.5,northwest,11.9
2021/10/23,14:20,1.5,northwest,9.4
2021/10/23,14:30,1.5,north-northwest,9.6
2021/10/23,14:40,1.4,north-northwest,9.6
2021/10/23,14:50,1.5,northwest,11.6
2021/10/23,15:00,1.5,northwest,11.8
2021/10/23,15:10,1.5,northwest,9.7
2021/10/23,15:20,1.5,northwest,6.7
2021/10/23,15:30,1.5,northwest,5.3
2021/10/23,15:40,1.5,north-northwest,6.0
2021/10/23,15:50,1.5,northwest,4.6
2021/10/23,16:00,1.5,northwest,4.9
2021/10/23,16:10,1.5,northwest,5.5
2021/10/23,16:20,1.5,north-northwest,5.4
2021/10/23,16:30,1.5,northwest,4.0
2021/10/23,16:40,1.5,northwest,3.2
2021/10/23,16:50,1.4,northwest,3.2
2021/10/23,17:00,1.5,northwest,2.8
2021/10/23,17:10,1.6,west-northwest,3.5
2021/10/23,17:20,1.5,northwest,3.5
2021/10/23,17:30,1.4,northwest,4.0
2021/10/23,17:40,1.6,northwest,5.2
2021/10/23,17:50,1.5,northwest,5.2
2021/10/23,18:00,1.6,northwest,4.9
2021/10/23,18:10,1.4,northwest,6.5
2021/10/23,18:20,1.5,northwest,7.2
2021/10/23,18:30,1.4,northwest,7.8
2021/10/23,18:40,1.4,northwest,7.4
2021/10/23,18:50,1.4,northwest,6.6
2021/10/23,19:00,1.5,northwest,5.9
2021/10/23,19:10,1.5,northwest,5.7
2021/10/23,19:20,1.5,northwest,6.5
2021/10/23,19:30,1.5,northwest,5.5
2021/10/23,19:40,1.5,northwest,5.9
2021/10/23,19:50,1.5,northwest,6.3
2021/10/23,20:00,1.5,northwest,5.6
2021/10/23,20:10,1.4,northwest,5.9
2021/10/23,20:20,1.3,northwest,6.3
2021/10/23,20:30,1.4,northwest,5.7
2021/10/23,20:40,1.5,northwest,6.0
2021/10/23,20:50,1.6,northwest,5.6
2021/10/23,21:00,1.4,northwest,5.2
2021/10/23,21:10,1.4,northwest,5.3
2021/10/23,21:20,1.5,northwest,6.1
2021/10/23,21:30,1.6,northwest,5.9
2021/10/23,21:40,1.6,northwest,5.4
2021/10/23,21:50,1.5,northwest,5.5
2021/10/23,22:00,1.4,northwest,4.3
2021/10/23,22:10,1.4,northwest,4.1
2021/10/23,22:20,1.5,west-northwest,4.3
2021/10/23,22:30,1.5,northwest,5.1
2021/10/23,22:40,1.4,west-northwest,6.1
2021/10/23,22:50,1.4,west-northwest,5.1
2021/10/23,23:00,1.4,west-northwest,6.5
2021/10/23,23:10,1.5,west-northwest,6.7
2021/10/23,23:20,1.5,west-northwest,6.5
2021/10/23,23:30,1.5,west-northwest,5.5
2021/10/23,23:40,1.4,west,4.0
2021/10/23,23:50,1.5,west-northwest,4.9
